sat.trackr.live / text

‹ back to catalog

STARLINK-1570

NORAD 46059 · 2020-055AJ

PAYLOAD ACTIVE UNKNOWN

§ Identity

Operator
Country
US
Launch date
2020-08-07
Launch site
AFETR
Launch vehicle
Mass (kg)
RCS (m²)

Purposes: comms

External: N2YO · Heavens-Above · Gunter

§ Orbital elements

Epoch: 2026-05-25T05:14:37.042656Z

Period
94.01 min
Inclination
53.1595°
Eccentricity
0.0001001
Mean motion
15.31704443 rev/d
Perigee alt
470.0 km
Apogee alt
471.4 km
Semi-major
6,848.9 km
B*
1.2171e-5
RAAN
117.9783°
Arg perigee
90.4587°
Mean anomaly
269.6529°
Rev number
32,075

§ Raw data

STARLINK-15701 46059U 20055AJ  26145.21848429  .00000013  00000+0  12171-4 0  99912 46059  53.1595 117.9783 0001001  90.4587 269.6529 15.31704443320753

JSON: /api/v1/satellites/46059 · /tle

For live sub-satellite position, see the globe view (requires WebGL).

§ Visibility from observer

Set your observer location to see the next 7 days of passes ≥ 10°. The values pass through the URL so the page stays shareable.

No JS? Fill the form by hand. The geolocation button needs JavaScript.